(3) Juno
ephemeris date magn radius delta ra dec elong phase
Today21 Jun 20269.92.887 AU2.058 AU20h33m-03°28'137.2°13.8°
Opposition26 Jul 20269.12.800 AU1.807 AU20h09m-04°57'165.2°5.3°
(3) Juno - 2026-06-21
astro.vanbuitenen.nl


 
-1 year
-1 month
-1 day
Now
+1 day
+1 month
+1 year

The interactive orbit chart above shows the body's path through the solar system and its position at the given date. Green and blue lines are shown perpendicular to the ecliptic plane: Green if the path is above the ecliptic plane, blue if it is below. (Left-click and drag to rotate the view; Right-click and drag to move the view; Use scroll wheel to zoom in our out.)

The orbital elements of Juno are:

            e (Eccentricity)                : 0.2556999
            a (Semimajor axis)              : 2.6709895
            i (Inclination)                 : 12.98659
            Ω (Longitude of ascending node) : 169.81162
            ω (Argument of perihelion)      : 247.89506
            M (Mean anomaly)                : 262.73228
            Epoch                           : 2026 Jun 09

            L (Longitude of perihelion)     : 237.18430
            B (Latitude of perihelion)      : -12.01718
            P (Orbital period in years)     : 4.37            
        

The light curve chart below shows the estimated development of the minor planet's magnitude.


The all-sky chart below shows the path of the minor planet over the same period as the light curve. The current position is marked yellow.





The following chart shows the path of the minor planet in the next few days. The field of view is optimized for (~10x50) binoculars and finderscopes.




Ephemerides:
Date       Time       RA (2000)    DEC (2000)    delta   radius  elong  phase   PA    magn
2026-06-21 00:00 UT   20 33 44.8   -03 28 52     2.058    2.887  137.2   13.8   239    9.9 
2026-06-21 14:22 UT   20 33 30.8   -03 28 36     2.051    2.886  137.8   13.7   238    9.8 
2026-06-22 00:00 UT   20 33 21.1   -03 28 26     2.047    2.885  138.2   13.6   238    9.8 
2026-06-23 00:00 UT   20 32 56.1   -03 28 10     2.036    2.882  139.1   13.3   237    9.8 
2026-06-24 00:00 UT   20 32 29.9   -03 28 03     2.026    2.880  140.1   13.1   237    9.8 
2026-06-25 00:00 UT   20 32 02.4   -03 28 06     2.015    2.878  141.1   12.8   236    9.8 
2026-06-26 00:00 UT   20 31 33.6   -03 28 19     2.005    2.875  142.0   12.6   235    9.7 
2026-06-27 00:00 UT   20 31 03.6   -03 28 42     1.995    2.873  143.0   12.3   235    9.7 
2026-06-28 00:00 UT   20 30 32.3   -03 29 15     1.985    2.871  144.0   12.0   234    9.7 
2026-06-29 00:00 UT   20 29 59.9   -03 29 57     1.976    2.868  144.9   11.7   233    9.7 
2026-06-30 00:00 UT   20 29 26.3   -03 30 50     1.967    2.866  145.9   11.5   232    9.6 
2026-07-01 00:00 UT   20 28 51.5   -03 31 54     1.958    2.863  146.9   11.2   231    9.6 
2026-07-02 00:00 UT   20 28 15.6   -03 33 07     1.949    2.861  147.8   10.9   230    9.6 
2026-07-03 00:00 UT   20 27 38.5   -03 34 31     1.940    2.859  148.8   10.6   229    9.6 
2026-07-04 00:00 UT   20 27 00.4   -03 36 06     1.932    2.856  149.8   10.3   228    9.6 
2026-07-05 00:00 UT   20 26 21.2   -03 37 51     1.923    2.854  150.7   10.0   227    9.5 
2026-07-06 00:00 UT   20 25 40.9   -03 39 46     1.915    2.851  151.7    9.7   226    9.5 
2026-07-07 00:00 UT   20 24 59.6   -03 41 52     1.908    2.849  152.6    9.5   224    9.5 
2026-07-08 00:00 UT   20 24 17.4   -03 44 09     1.900    2.846  153.5    9.2   223    9.5 
2026-07-09 00:00 UT   20 23 34.2   -03 46 37     1.893    2.844  154.4    8.9   222    9.4 
2026-07-10 00:00 UT   20 22 50.0   -03 49 15     1.886    2.841  155.3    8.6   220    9.4 
2026-07-11 00:00 UT   20 22 05.0   -03 52 04     1.879    2.839  156.2    8.3   218    9.4 
2026-07-12 00:00 UT   20 21 19.2   -03 55 04     1.872    2.837  157.1    8.0   216    9.4 
2026-07-13 00:00 UT   20 20 32.5   -03 58 14     1.866    2.834  158.0    7.7   214    9.4 
2026-07-14 00:00 UT   20 19 45.1   -04 01 35     1.860    2.832  158.8    7.5   212    9.3 
2026-07-15 00:00 UT   20 18 57.0   -04 05 06     1.854    2.829  159.6    7.2   210    9.3 
2026-07-16 00:00 UT   20 18 08.3   -04 08 48     1.849    2.827  160.4    6.9   207    9.3 
2026-07-17 00:00 UT   20 17 18.9   -04 12 39     1.843    2.824  161.1    6.7   205    9.3 
2026-07-18 00:00 UT   20 16 29.0   -04 16 41     1.838    2.822  161.8    6.5   202    9.3 
2026-07-19 00:00 UT   20 15 38.6   -04 20 54     1.834    2.819  162.4    6.2   199    9.2 
2026-07-20 00:00 UT   20 14 47.7   -04 25 15     1.829    2.817  163.0    6.0   195    9.2 
2026-07-21 00:00 UT   20 13 56.4   -04 29 47     1.825    2.814  163.6    5.9   192    9.2 


    Terminology:
            
    delta:  distance between minor planet and earth in AU
    radius: distance between minor planet and sun in AU
    magn:   magnitude (brightness) estimate    
    ra:     right ascension in hours (24h = 360deg)
    dec:    declination in degrees
    elong:  elongation in degrees (angle sun-earth-minor planet)    
    phase:  phase angle in degrees (angle sun-minor planet-earth)        
    AU:     Astronomical Unit (mean distance between earth and sun: 149597870.7 km
    

Orbital elements provided by the MPC (Minor Planet Center).
Calculations by a modified version of AAPlus, a C# implementation of the AA+ project by PJ Naughter from the algorithms presented in the book "Astronomical Algorithms" by Jean Meeus.
NGC2000 dso catalog and star labels from VizieR as provided by the Strasbourg astronomical Data Center.
Tycho2 catalog from the ESO archive.